This demonstration page uses our WeatherBlox Daily Observations layout. Learn more.

Left ArrowRight Arrow

Hourly Observations for October 8, 2021

Temp ( °F °C ) Dew Point ( °F °C ) Humidity (%) Winds ( mph kmh ) Pressure ( in mb ) Visibility ( mi km ) Precip ( " mm )
12:36 am 00:36 Cloudy 71 21.7 68 20 90 90 Calm 30.06 1018 10 16 0.00 0.00
12:53 am 00:53 Cloudy 71 21.7 68 20 90 90 ESE 3 6 30.07 1018 10 16 0.00 0.00
1:53 am 01:53 Cloudy 71 21.7 68 20 90 90 ENE 3 6 30.04 1017 10 16 0.00 0.00
2:44 am 02:44 Cloudy 71 21.7 68 20 90 90 ENE 3 6 30.04 1017 10 16 0.00 0.00
2:53 am 02:53 Cloudy 71 21.7 68 20 90 90 NE 3 6 30.05 1018 10 16 0.00 0.00
3:53 am 03:53 Cloudy 71 21.7 68 20 90 90 Calm 30.04 1017 10 16 0.00 0.00
4:35 am 04:35 Cloudy 70 21.1 69 20.6 97 97 Calm 30.03 1017 10 16 0.00 0.00
4:53 am 04:53 Mostly Cloudy 70 21.1 68 20 93 93 Calm 30.03 1017 10 16 0.00 0.00
5:05 am 05:05 Partly Cloudy 70 21.1 68 20 93 93 Calm 30.03 1017 10 16 0.00 0.00
5:53 am 05:53 Clear 68 20 67 19.4 96 96 Calm 30.04 1017 10 16 0.00 0.00
6:12 am 06:12 Mostly Cloudy 68 20 67 19.4 96 96 Calm 30.05 1018 9 14 0.00 0.00
6:27 am 06:27 Cloudy 68 20 67 19.4 96 96 Calm 30.06 1018 10 16 0.00 0.00
6:53 am 06:53 Cloudy 68 20 68 20 100 100 Calm 30.05 1018 10 16 0.00 0.00
7:50 am 07:50 Mostly Sunny 68 20 66 19 94 94 Calm 30.06 1018 10 16 0.00 0.00
7:53 am 07:53 Mostly Sunny 68 20 67 19.4 96 96 Calm 30.06 1018 10 16 0.00 0.00
8:53 am 08:53 Mostly Sunny 69 20.6 68 20 96 96 Calm 30.07 1018 10 16 0.00 0.00
9:53 am 09:53 Sunny 73 22.8 68 20 84 84 Calm 30.08 1019 10 16 0.00 0.00
10:53 am 10:53 Mostly Sunny 76 24.4 66 18.9 72 72 NNE 5 7 30.08 1019 10 16 0.00 0.00
11:53 am 11:53 Mostly Cloudy 78 25.6 66 18.9 67 67 NW 7 11 30.07 1018 10 16 0.00 0.00
12:53 pm 12:53 Mostly Sunny 79 26.1 65 18.3 62 62 Calm 30.05 1018 10 16 0.00 0.00
1:53 pm 13:53 Mostly Sunny 81 27.2 63 17.2 54 54 NNW 6 9 30.02 1017 10 16 0.00 0.00
2:53 pm 14:53 Mostly Sunny 81 27.2 61 16.1 51 51 NNW 12 19 30.00 1016 10 16 0.00 0.00
3:53 pm 15:53 Mostly Sunny 81 27.2 60 15.6 49 49 VRB 6 9 29.99 1016 10 16 0.00 0.00
4:53 pm 16:53 Sunny 81 27.2 60 15.6 49 49 NW 10 17 29.98 1015 10 16 0.00 0.00
5:53 pm 17:53 Sunny 80 26.7 59 15 49 49 NNW 7 11 29.98 1015 10 16 0.00 0.00
6:53 pm 18:53 Sunny 76 24.4 60 15.6 58 58 NW 5 7 30.00 1016 10 16 0.00 0.00
7:53 pm 19:53 Clear 71 21.7 63 17.2 76 76 Calm 30.01 1016 10 16 0.00 0.00
8:53 pm 20:53 Clear 68 20 64 17.8 87 87 Calm 30.01 1016 10 16 0.00 0.00
9:53 pm 21:53 Clear 68 20 63 17.2 84 84 Calm 30.03 1017 10 16 0.00 0.00
10:53 pm 22:53 Clear 65 18.3 63 17.2 93 93 N 3 6 30.03 1017 10 16 0.00 0.00
11:53 pm 23:53 Clear 64 17.8 62 16.7 93 93 Calm 30.04 1017 10 16 0.00 0.00

Powered by AerisWeather